Terminal Aerodrome Forecast
Issued by NWS Aberdeen, SD

Home | Current Version | Previous Version | Text Only | Print | Product List | Glossary On
Versions: 1 2 3 4 5 6 7 8 9 10 11 12 13 14 15 16 17 18 19 20 21 22 23 24 25 26 27 28 29 30 31 32 33 34 35 36 37 38 39 40 41 42 43 44 45 46 47 48 49 50
426
FTAK31 PAFA 292352
TAFABR
TAF
PABR 292352Z 3000/3024 02006KT P6SM OVC012
     FM300800 07006KT 5SM BR OVC010
     FM301200 07005KT 2SM -SN BR OVC009
     FM302100 07006KT 6SM BR OVC010=

USA.gov is the U.S. government's official web portal to all federal, state and local government web resources and services.